This demonstration page uses our WeatherBlox Daily Observations layout. Learn more.

Left ArrowRight Arrow

38.20091, -84.87328

Hourly Observations for July 8, 2021

Temp ( °F °C ) Dew Point ( °F °C ) Humidity (%) Winds ( mph kmh ) Pressure ( in mb ) Visibility ( mi km ) Precip ( " mm )
12:53 am 00:53 Mostly Cloudy 74 23.3 70 21.1 88 88 S 7 11 29.92 1013 10 16 0.00 0.00
1:53 am 01:53 Cloudy 73 22.8 70 21.1 90 90 S 6 9 29.91 1013 10 16 0.00 0.00
2:53 am 02:53 Cloudy 73 22.8 70 21.1 90 90 SSW 5 7 29.91 1013 10 16 0.00 0.00
3:53 am 03:53 Mostly Cloudy 72 22.2 69 20.6 91 91 SSW 6 9 29.89 1012 10 16 0.00 0.00
4:53 am 04:53 Mostly Clear 72 22.2 69 20.6 91 91 SSW 5 7 29.89 1012 10 16 0.00 0.00
5:06 am 05:06 Mostly Cloudy 73 22.8 69 20.6 87 87 SSW 5 7 29.89 1012 10 16 0.00 0.00
5:53 am 05:53 Cloudy 73 22.8 69 20.6 87 87 SW 6 9 29.89 1012 10 16 0.00 0.00
6:50 am 06:50 Cloudy 73 23 70 21 89 89 SSW 7 11 29.90 1013 10 16 0.00 0.00
6:53 am 06:53 Cloudy 73 22.8 69 20.6 87 87 SSW 6 9 29.91 1013 10 16 0.00 0.00
7:07 am 07:07 Cloudy 73 22.8 69 20.6 87 87 SSW 5 7 29.90 1013 10 16 0.00 0.00
7:53 am 07:53 Cloudy 74 23.3 70 21.1 88 88 SW 5 7 29.91 1013 10 16 0.00 0.00
8:53 am 08:53 Cloudy 75 23.9 70 21.1 84 84 SW 7 11 29.92 1013 10 16 0.00 0.00
9:22 am 09:22 Cloudy 76 24.4 70 21.1 82 82 SSW 8 13 29.92 1013 10 16 0.00 0.00
9:53 am 09:53 Cloudy 77 25 71 21.7 82 82 SSW 6 9 29.93 1013 10 16 0.00 0.00
10:38 am 10:38 Partly Cloudy 78 25.6 71 21.7 79 79 WSW 7 11 29.91 1013 10 16 0.00 0.00
10:48 am 10:48 Mostly Cloudy 79 26 72 22 79 79 SW 6 9 29.90 1013 10 16 0.00 0.00
10:53 am 10:53 Mostly Cloudy 78 25.6 71 21.7 79 79 SW 6 9 29.92 1013 10 16 0.00 0.00
11:53 am 11:53 Mostly Cloudy 81 27.2 72 22.2 74 74 S 6 9 29.91 1013 10 16 0.00 0.00
12:03 pm 12:03 Mostly Cloudy 82 27.8 71 21.7 69 69 WSW 8 13 29.90 1013 10 16 0.00 0.00
12:16 pm 12:16 Partly Cloudy 83 28.3 72 22.2 70 70 undefined N/A 29.90 1012 10 16 0.00 0.00
12:53 pm 12:53 Mostly Cloudy 83 28.3 72 22.2 70 70 VRB 6 9 29.91 1013 10 16 0.00 0.00
1:53 pm 13:53 Mostly Sunny 85 29.4 71 21.7 63 63 VRB 5 7 29.90 1013 10 16 0.00 0.00
2:53 pm 14:53 Partly Cloudy 87 30.6 72 22.2 61 61 SW 12 19 29.89 1012 10 16 0.00 0.00
3:53 pm 15:53 Partly Cloudy 86 30 71 21.7 61 61 SSW 14 22 29.87 1011 10 16 0.00 0.00
4:53 pm 16:53 Sunny 85 29.4 70 21.1 61 61 SW 8 13 29.86 1011 10 16 0.00 0.00
5:53 pm 17:53 Partly Cloudy 84 28.9 70 21.1 63 63 S 8 13 29.88 1012 10 16 0.00 0.00
6:53 pm 18:53 Mostly Sunny 83 28.3 71 21.7 67 67 SSW 7 11 29.84 1011 10 16 0.00 0.00
7:16 pm 19:16 Partly Cloudy with Nearby Thunderstorms 82 27.8 71 21.7 69 69 SSW 7 11 29.84 1010 10 16 0.00 0.00
7:31 pm 19:31 Partly Cloudy with Thunderstorms 82 27.8 72 22.2 72 72 SSW 8 13 29.84 1010 10 16 0.00 0.00
7:53 pm 19:53 Mostly Cloudy with Thunderstorms 80 26.7 72 22.2 76 76 WSW 6 9 29.87 1011 7 11 0.01 0.25
8:21 pm 20:21 Mostly Cloudy with Strong Thunderstorms 73 22.8 69 20.6 87 87 NNW 20 31 29.93 1014 2 2 0.21 5.33
8:25 pm 20:25 Cloudy with Strong Thunderstorms 71 21.7 69 20.6 94 94 NNW 16 26 29.93 1013 1 2 0.37 9.40
8:31 pm 20:31 Cloudy with Strong Thunderstorms 71 21.7 69 20.6 94 94 NNW 13 20 29.92 1013 1 2 0.43 10.92
8:41 pm 20:41 Cloudy with Strong Thunderstorms 72 22.2 69 20.6 91 91 NW 18 30 29.91 1013 2 3 0.57 14.48
8:45 pm 20:45 Cloudy with Strong Thunderstorms 71 21.7 69 20.6 94 94 NNW 17 28 29.92 1013 1 2 0.69 17.53
8:51 pm 20:51 Cloudy with Thunderstorms 72 22 70 21 94 94 NW 8 13 29.92 1013 1 2 0.72 18.29
8:52 pm 20:52 Cloudy with Thunderstorms 72 22.2 70 21.1 94 94 NW 6 9 29.91 1013 2 2 0.72 18.29
8:55 pm 20:55 Cloudy with Thunderstorms 72 22.2 70 21.1 94 94 NW 6 9 29.91 1013 3 5 0.01 0.25
9:00 pm 21:00 Cloudy with Thunderstorms 72 22.2 70 21.1 94 94 Calm 29.90 1013 2 2 0.06 1.52
9:07 pm 21:07 Cloudy with Nearby Thunderstorms 72 22.2 70 21.1 94 94 Calm 29.89 1012 2 3 0.06 1.52
9:09 pm 21:09 Cloudy with Nearby Thunderstorms 72 22.2 70 21.1 94 94 Calm 29.90 1013 3 5 0.06 1.52
9:17 pm 21:17 Cloudy 72 22.2 70 21.1 94 94 Calm 29.89 1012 10 16 0.06 1.52
9:53 pm 21:53 Mostly Cloudy 72 22.2 71 21.7 97 97 S 5 7 29.90 1012 10 16 0.06 1.52
10:53 pm 22:53 Partly Cloudy 72 22.2 70 21.1 94 94 SSW 8 13 29.90 1013 10 16 0.00 0.00
11:53 pm 23:53 Clear 72 22.2 70 21.1 94 94 SSW 5 7 29.91 1013 10 16 0.00 0.00

Powered by AerisWeather